Weather History for Lander, WY

Change the Weather History Date:

Tuesday, September 10, 2013

  Actual Average Record
Temperature  
Mean Temperature 64 °F 61 °F  
Max Temperature 73 °F 76 °F 87 °F (1959)
Min Temperature 55 °F 47 °F 31 °F (1928)
Degree Days  
Heating Degree Days 1 5  
Month to date heating degree days 3 36  
Since 1 July heating degree days 3 76  
Cooling Degree Days 0 1  
Month to date cooling degree days 64 19  
Year to date cooling degree days 742 464  
Growing Degree Days 14 (Base 50)    
Moisture  
Dew Point 46 °F    
Average Humidity 55    
Maximum Humidity 72    
Minimum Humidity 38    
Precipitation  
Precipitation 0.00 in 0.03 in 1.07 in (1950)
Month to date precipitation 0.21 0.25  
Year to date precipitation 8.07 9.13  
Snow  
Snow 0.00 in 0.00 in - ()
Month to date snowfall 0.0 0.3  
Since 1 July snowfall 0.0 0.3  
Since 1 September snowfall 0.0 0.3  
Snow Depth 0.00 in    
Sea Level Pressure  
Sea Level Pressure 30.03 in    
Wind  
Wind Speed 3 mph (SSW)    
Max Wind Speed 12 mph    
Max Gust Speed 13 mph    
Visibility 10 miles    
Events      
T = Trace of Precipitation, MM = Missing Value Source: NWS Daily Summary

Daily Weather History Graph

Daily Weather History Graph

Search for Another Location

Airport:

Trip Planner

Search our weather history database for the weather conditions in past years. The results will help you decide how hot, cold, wet, or windy it might be!

Date:

Astronomy

Sep. 10, 2013 Rise Set
Actual Time 6:49 AM MDT 7:33 PM MDT
Civil Twilight 6:20 AM MDT 8:01 PM MDT
Nautical Twilight 5:47 AM MDT 8:35 PM MDT
Astronomical Twilight 5:11 AM MDT 9:10 PM MDT
Moon 12:27 PM MDT (9/10) 10:30 PM MDT (9/10)
Length of Visible Light 13h 40m
Length of Day
12h 43m
Waxing Crescent, 29% of the Moon is Illuminated
Sep 10
Waxing Crescent
Sep 12
First Quarter
Sep 19
Full
Sep 26
Last Quarter
Oct 4
New

Hourly Weather History & Observations

Time (MDT) Temp. Dew Point Humidity Pressure Visibility Wind Dir Wind Speed Gust Speed Precip Events Conditions
12:53 AM 61.0 °F 48.0 °F 62% 29.96 in 10.0 mi WNW 4.6 mph - N/A   Overcast
1:53 AM 62.1 °F 46.0 °F 56% 29.97 in 10.0 mi West 3.5 mph - N/A   Overcast
2:53 AM 61.0 °F 46.9 °F 60% 29.98 in 10.0 mi West 3.5 mph - N/A   Overcast
3:53 AM 60.1 °F 46.9 °F 62% 29.98 in 10.0 mi Calm Calm - N/A   Overcast
4:53 AM 61.0 °F 46.0 °F 58% 29.98 in 10.0 mi Calm Calm - N/A   Overcast
5:53 AM 59.0 °F 46.0 °F 62% 29.99 in 10.0 mi Calm Calm - N/A   Overcast
6:53 AM 57.9 °F 46.0 °F 65% 30.01 in 10.0 mi SW 3.5 mph - N/A   Overcast
7:53 AM 57.9 °F 48.0 °F 70% 30.06 in 10.0 mi Calm Calm - N/A   Overcast
8:53 AM 60.1 °F 48.0 °F 64% 30.06 in 10.0 mi SE 3.5 mph - N/A   Mostly Cloudy
9:53 AM 63.0 °F 46.0 °F 54% 30.07 in 10.0 mi SE 4.6 mph - N/A   Overcast
10:53 AM 64.9 °F 42.1 °F 43% 30.06 in 10.0 mi East 3.5 mph - N/A   Overcast
11:53 AM 66.9 °F 44.1 °F 44% 30.06 in 10.0 mi ENE 3.5 mph - N/A   Overcast
12:53 PM 68.0 °F 45.0 °F 43% 30.05 in 10.0 mi SE 3.5 mph - N/A   Overcast
1:53 PM 68.0 °F 44.1 °F 42% 30.04 in 10.0 mi Calm Calm - N/A   Mostly Cloudy
2:53 PM 71.1 °F 45.0 °F 39% 30.02 in 10.0 mi SE 4.6 mph - N/A   Mostly Cloudy
3:53 PM 70.0 °F 44.1 °F 39% 30.01 in 10.0 mi Calm Calm - N/A   Clear
4:53 PM 70.0 °F 45.0 °F 41% 30.00 in 10.0 mi Calm Calm - N/A   Partly Cloudy
5:53 PM 71.1 °F 46.0 °F 41% 30.00 in 10.0 mi Calm Calm - N/A   Clear
6:53 PM 66.9 °F 48.0 °F 51% 30.03 in 10.0 mi South 4.6 mph - N/A   Scattered Clouds
7:53 PM 64.0 °F 46.9 °F 54% 30.05 in 10.0 mi SSW 5.8 mph - N/A   Partly Cloudy
8:53 PM 63.0 °F 46.0 °F 54% 30.06 in 10.0 mi SW 3.5 mph - N/A   Clear
9:53 PM 62.1 °F 46.0 °F 56% 30.07 in 10.0 mi SW 6.9 mph - N/A   Mostly Cloudy
10:53 PM 61.0 °F 45.0 °F 56% 30.08 in 10.0 mi WSW 11.5 mph - N/A   Clear
11:53 PM 57.9 °F 46.0 °F 65% 30.08 in 10.0 mi Calm Calm - N/A   Clear